Powrót do katalogu

CZ-4 DEB

AktywnySSO
NORAD 20884·DEBRIS·🇨🇳 China

Wystrzelony Sep 3, 1990 z Taiyuan Satellite Launch Center

Loading…

Następne Przeloty (najbliższe 24 godziny)

TLE

ŚwieżeSource: Space-Track

Epoka: Sep 13, 2026, 23:32 UTC

1 20884U 90081AU  26256.98118554  .00000938  00000-0  42406-3 0  9991
2 20884  98.4950 260.1206 0027332  18.6620 341.5556 14.24180437668065

Śledź CZ-4 DEB w czasie rzeczywistym z AllMySat

Download on the App Store